﻿_id,日時,平均風速(m/s),平均風向,最大瞬間風速(m/s),最大風速時風向,気温(℃),湿度(%),10分間移動積算雨量(mm),1時間移動積算雨量(mm),日雨量(mm),累計雨量(mm)
1,2021-06-14T00:00:00,0.5,南南東,1.6,東南東,19.8,95.6,0.5,0.5,6.5,6.5
2,2021-06-14T00:01:00,0.5,南南東,1.7,北東,19.6,95.6,0.5,0.5,0,6.5
3,2021-06-14T00:02:00,0.7,南東,2,北東,19.5,95.4,0.5,0.5,0,6.5
4,2021-06-14T00:03:00,0.8,東南東,2.1,東北東,19.5,95.5,0.5,0.5,0,6.5
5,2021-06-14T00:04:00,0.9,東,2.1,東北東,19.5,95.7,0.5,0.5,0,6.5
6,2021-06-14T00:05:00,1,東,2.3,東,19.4,95.8,0.5,0.5,0,6.5
7,2021-06-14T00:06:00,1.2,東,2.3,東,19.4,95.9,0,0.5,0,6.5
8,2021-06-14T00:07:00,1.3,東北東,2.3,東,19.4,96,0,0.5,0,6.5
9,2021-06-14T00:08:00,1.4,東北東,2.5,東北東,19.4,96.1,0,0.5,0,6.5
10,2021-06-14T00:09:00,1.5,東北東,2.5,東北東,19.4,96.2,0,0.5,0,6.5
11,2021-06-14T00:10:00,1.5,東北東,2.5,東北東,19.4,96.3,0.5,1,0.5,7
12,2021-06-14T00:11:00,1.6,東北東,2.5,東北東,19.4,96.4,0.5,1,0.5,7
13,2021-06-14T00:12:00,1.6,東北東,2.5,東北東,19.4,96.4,0.5,1,0.5,7
14,2021-06-14T00:13:00,1.6,東北東,2.5,東北東,19.4,96.4,0.5,1,0.5,7
15,2021-06-14T00:14:00,1.6,東北東,2.5,東北東,19.4,96.4,0.5,1,0.5,7
16,2021-06-14T00:15:00,1.6,東北東,2.5,東北東,19.4,96.4,0.5,1,0.5,7
17,2021-06-14T00:16:00,1.7,東北東,2.8,東北東,19.4,96.5,0.5,1,0.5,7
18,2021-06-14T00:17:00,1.7,東北東,2.8,東北東,19.3,96.4,0.5,1,0.5,7
19,2021-06-14T00:18:00,1.8,東北東,2.8,東北東,19.3,96.4,0.5,1,0.5,7
20,2021-06-14T00:19:00,1.7,東北東,2.8,東北東,19.3,96.5,0.5,1,0.5,7
21,2021-06-14T00:20:00,1.6,東北東,2.8,東北東,19.3,96.5,0,1,0.5,7
22,2021-06-14T00:21:00,1.5,東北東,2.8,東北東,19.5,96.8,0,1,0.5,7
23,2021-06-14T00:22:00,1.5,東北東,2.8,東北東,19.6,97,0,1,0.5,7
24,2021-06-14T00:23:00,1.5,東北東,2.8,東北東,19.6,97,0.5,1.5,1,7.5
25,2021-06-14T00:24:00,1.5,北東,2.8,東北東,19.6,96.9,0.5,1.5,1,7.5
26,2021-06-14T00:25:00,1.4,北北東,2.8,東北東,19.6,96.9,0.5,1.5,1,7.5
27,2021-06-14T00:26:00,1.3,北北西,2.8,東北東,19.7,97,0.5,1.5,1,7.5
28,2021-06-14T00:27:00,1.2,北西,2.6,東,19.7,96.9,0.5,1.5,1,7.5
29,2021-06-14T00:28:00,1,北西,2.4,西,19.6,96.8,0.5,1.5,1,7.5
30,2021-06-14T00:29:00,1,西北西,2.6,南東,19.5,96.6,0.5,1.5,1,7.5
31,2021-06-14T00:30:00,1.1,西北西,4,東,19.5,96.6,1,2,1.5,8
32,2021-06-14T00:31:00,1.4,西南西,4.1,東南東,19.4,96.5,1,2,1.5,8
33,2021-06-14T00:32:00,1.6,南,4.9,東,19.4,96.5,1,2,1.5,8
34,2021-06-14T00:33:00,1.7,東南東,4.9,東,19.3,96.5,0.5,2,1.5,8
35,2021-06-14T00:34:00,1.9,東南東,5,東南東,19.4,96.6,0.5,2,1.5,8
36,2021-06-14T00:35:00,2,東南東,5,東南東,19.4,96.5,0.5,2,1.5,8
37,2021-06-14T00:36:00,2,東,5,東南東,19.5,96.5,0.5,2,1.5,8
38,2021-06-14T00:37:00,2,東,5,東南東,19.6,96.6,0.5,2,1.5,8
39,2021-06-14T00:38:00,2.1,東南東,5,東南東,19.7,96.7,0.5,2,1.5,8
40,2021-06-14T00:39:00,2.2,東南東,5,東南東,19.7,96.7,0.5,2,1.5,8
41,2021-06-14T00:40:00,2.2,東南東,5,東南東,19.7,96.6,0,2,1.5,8
42,2021-06-14T00:41:00,2.1,西南西,5,東南東,19.7,96.5,0,2,1.5,8
43,2021-06-14T00:42:00,1.8,西,5,東南東,19.7,96.5,0,2,1.5,8
44,2021-06-14T00:43:00,1.6,西北西,5,東南東,19.7,96.4,0,2,1.5,8
45,2021-06-14T00:44:00,1.2,西北西,4.3,東南東,19.6,96.4,0,2,1.5,8
46,2021-06-14T00:45:00,1,西北西,2.8,西,19.6,96.3,0,2,1.5,8
47,2021-06-14T00:46:00,1,西北西,2.8,西,19.6,96.4,0,2,1.5,8
48,2021-06-14T00:47:00,1.1,北西,2.8,西,19.6,96.5,0,2,1.5,8
49,2021-06-14T00:48:00,1.1,北西,2.8,西,19.6,96.5,0,2,1.5,8
50,2021-06-14T00:49:00,1,北西,2.8,西,19.6,96.6,0,2,1.5,8
51,2021-06-14T00:50:00,0.9,北西,2.3,西北西,19.6,96.4,0,2,1.5,8
52,2021-06-14T00:51:00,0.7,北北西,2,西,19.5,96.4,0,2,1.5,8
53,2021-06-14T00:52:00,0.7,北北西,1.8,北北西,19.6,96.5,0,2,1.5,8
54,2021-06-14T00:53:00,0.6,北西,1.8,北北西,19.7,96.8,0,2,1.5,8
55,2021-06-14T00:54:00,0.6,西北西,1.8,北北西,19.7,96.6,0,2,1.5,8
56,2021-06-14T00:55:00,0.7,西北西,1.8,北北西,19.7,96.6,0,2,1.5,8
57,2021-06-14T00:56:00,0.6,西北西,1.8,北北西,19.7,96.7,0,1.5,1.5,8
58,2021-06-14T00:57:00,0.5,西,1.8,北北西,19.7,96.7,0,1.5,1.5,8
59,2021-06-14T00:58:00,0.4,西南西,1.7,西,19.7,96.8,0,1.5,1.5,8
60,2021-06-14T00:59:00,0.3,西南西,1.3,西北西,19.6,96.5,0,1.5,1.5,8
61,2021-06-14T01:00:00,0.3,南西,1.1,北西,19.6,96.4,0,1.5,1.5,8
62,2021-06-14T01:01:00,0.4,南西,1.1,北西,19.5,96.3,0,1.5,1.5,8
63,2021-06-14T01:02:00,0.4,南西,1.1,北西,19.5,96.4,0,1.5,1.5,8
64,2021-06-14T01:03:00,0.4,南西,1.1,北西,19.5,96.5,0,1.5,1.5,8
65,2021-06-14T01:04:00,0.5,南南西,1.1,北西,19.5,96.5,0,1.5,1.5,8
66,2021-06-14T01:05:00,0.4,南,1.1,北西,19.7,96.8,0,1.5,1.5,8
67,2021-06-14T01:06:00,0.3,南,0.8,南東,19.7,96.9,0,1.5,1.5,8
68,2021-06-14T01:07:00,0.3,南南東,0.8,南東,19.7,96.8,0,1.5,1.5,8
69,2021-06-14T01:08:00,0.2,静穏,0.8,南東,19.7,96.7,0,1.5,1.5,8
70,2021-06-14T01:09:00,0.2,静穏,0.8,南東,19.5,96.7,0,1.5,1.5,8
71,2021-06-14T01:10:00,0.2,静穏,0.8,南東,19.6,96.5,0,1,1.5,8
72,2021-06-14T01:11:00,0.1,静穏,0.8,南東,19.6,96.6,0,1,1.5,8
73,2021-06-14T01:12:00,0.1,静穏,0.8,南東,19.7,96.8,0,1,1.5,8
74,2021-06-14T01:13:00,0.1,静穏,0.5,南西,19.6,96.7,0,1,1.5,8
75,2021-06-14T01:14:00,0.1,静穏,0.5,南西,19.7,96.8,0,1,1.5,8
76,2021-06-14T01:15:00,0.1,静穏,1.2,南南西,19.6,96.7,0,1,1.5,8
77,2021-06-14T01:16:00,0.2,静穏,1.5,南南西,19.5,96.4,0,1,1.5,8
78,2021-06-14T01:17:00,0.3,南南西,1.5,南南西,19.4,96.4,0,1,1.5,8
79,2021-06-14T01:18:00,0.4,南南西,1.5,南南西,19.4,96.3,0,1,1.5,8
80,2021-06-14T01:19:00,0.4,南南西,1.5,南南西,19.4,96.5,0,1,1.5,8
81,2021-06-14T01:20:00,0.4,南南西,1.5,南南西,19.4,96.6,0,1,1.5,8
82,2021-06-14T01:21:00,0.4,南,1.5,南南西,19.5,96.8,0,1,1.5,8
83,2021-06-14T01:22:00,0.5,南,1.5,南南西,19.4,96.8,0,1,1.5,8
84,2021-06-14T01:23:00,0.5,南南東,1.5,南南西,19.3,96.4,0,0.5,1.5,8
85,2021-06-14T01:24:00,0.5,南東,1.5,南南西,19.3,96.5,0,0.5,1.5,8
86,2021-06-14T01:25:00,0.5,南東,1.6,北東,19.3,96.5,0,0.5,1.5,8
87,2021-06-14T01:26:00,0.5,東南東,1.6,北東,19.2,96.6,0,0.5,1.5,8
88,2021-06-14T01:27:00,0.5,東,1.6,北東,19.3,96.7,0,0.5,1.5,8
89,2021-06-14T01:28:00,0.6,東北東,1.6,北東,19.2,96.8,0,0.5,1.5,8
90,2021-06-14T01:29:00,0.6,東北東,1.6,北東,19.3,96.8,0,0.5,1.5,8
91,2021-06-14T01:30:00,0.6,北東,1.6,北東,19.4,97.1,0,0,1.5,8
92,2021-06-14T01:31:00,0.6,北東,1.6,北東,19.3,97,0,0,1.5,8
93,2021-06-14T01:32:00,0.6,北東,1.6,北東,19.4,97,0,0,1.5,8
94,2021-06-14T01:33:00,0.6,北東,1.6,北東,19.4,97.1,0,0,1.5,8
95,2021-06-14T01:34:00,0.5,北東,1.6,北東,19.5,97.3,0,0,1.5,8
96,2021-06-14T01:35:00,0.5,東北東,1.3,北東,19.5,97.1,0,0,1.5,8
97,2021-06-14T01:36:00,0.4,東,1.3,北東,19.5,97.1,0,0,1.5,8
98,2021-06-14T01:37:00,0.4,東,1.3,北東,19.3,96.9,0,0,1.5,8
99,2021-06-14T01:38:00,0.4,東南東,0.9,東,19.3,96.7,0,0,1.5,8
100,2021-06-14T01:39:00,0.4,東南東,0.9,東,19.3,96.7,0,0,1.5,8
101,2021-06-14T01:40:00,0.5,東南東,1.1,東南東,19.3,96.9,0,0,1.5,8
102,2021-06-14T01:41:00,0.5,南東,1.3,南東,19.3,97,0,0,1.5,8
103,2021-06-14T01:42:00,0.5,東南東,1.3,南東,19.3,96.9,0,0,1.5,8
104,2021-06-14T01:43:00,0.6,東南東,1.3,南東,19.4,97.1,0,0,1.5,8
105,2021-06-14T01:44:00,0.6,東南東,1.3,南東,19.3,97,0,0,1.5,8
106,2021-06-14T01:45:00,0.7,東南東,1.3,南東,19.3,96.9,0,0,1.5,8
107,2021-06-14T01:46:00,0.6,南東,1.3,南東,19.5,97.2,0,0,1.5,8
108,2021-06-14T01:47:00,0.6,南東,1.3,南東,19.5,97.2,0,0,1.5,8
109,2021-06-14T01:48:00,0.7,南南東,1.9,西,19.5,97,0,0,1.5,8
110,2021-06-14T01:49:00,0.7,南,1.9,西,19.6,97.1,0,0,1.5,8
111,2021-06-14T01:50:00,0.6,南南西,1.9,西,19.4,96.8,0,0,1.5,8
112,2021-06-14T01:51:00,0.5,南西,1.9,西,19.4,96.6,0,0,1.5,8
113,2021-06-14T01:52:00,0.6,南南西,1.9,西,19.4,96.6,0,0,1.5,8
114,2021-06-14T01:53:00,0.6,南西,1.9,西,19.4,96.7,0,0,1.5,8
115,2021-06-14T01:54:00,0.6,北,1.9,西,19.4,96.6,0,0,1.5,8
116,2021-06-14T01:55:00,0.7,北東,1.9,西,19.4,96.7,0,0,1.5,8
117,2021-06-14T01:56:00,0.8,北東,2.6,東北東,19.4,96.6,0,0,1.5,8
118,2021-06-14T01:57:00,0.9,北東,2.6,東北東,19.3,96.6,0,0,1.5,8
119,2021-06-14T01:58:00,1,東北東,3.2,東,19.3,96.5,0,0,1.5,8
120,2021-06-14T01:59:00,1.2,東北東,3.3,東,19.3,96.5,0,0,1.5,8
121,2021-06-14T02:00:00,1.4,東北東,3.5,東,19.3,96.5,0,0,1.5,8
122,2021-06-14T02:01:00,1.6,東北東,3.5,東,19.3,96.5,0,0,1.5,8
123,2021-06-14T02:02:00,1.7,東,3.8,東,19.3,96.6,0,0,1.5,8
124,2021-06-14T02:03:00,1.9,東,3.8,東,19.3,96.6,0,0,1.5,8
125,2021-06-14T02:04:00,2,東,3.8,東,19.3,96.6,0,0,1.5,8
126,2021-06-14T02:05:00,2.1,東,3.8,東,19.3,96.5,0,0,1.5,8
127,2021-06-14T02:06:00,2,東,3.8,東,19.3,96.5,0,0,1.5,8
128,2021-06-14T02:07:00,2,東,3.8,東,19.3,96.6,0,0,1.5,8
129,2021-06-14T02:08:00,1.9,東北東,3.8,東,19.3,96.5,0,0,1.5,8
130,2021-06-14T02:09:00,1.7,東北東,3.8,東,19.2,96.5,0,0,1.5,8
131,2021-06-14T02:10:00,1.6,東北東,3.8,東,19.3,96.7,0,0,1.5,8
132,2021-06-14T02:11:00,1.6,北東,3.8,東,19.4,96.7,0,0,1.5,8
133,2021-06-14T02:12:00,1.5,北東,3,東,19.4,96.8,0,0,1.5,8
134,2021-06-14T02:13:00,1.4,北北東,2.8,北西,19.4,96.7,0,0,1.5,8
135,2021-06-14T02:14:00,1.2,北,2.8,北西,19.4,96.6,0,0,1.5,8
136,2021-06-14T02:15:00,1.1,北北西,2.8,北西,19.5,96.6,0,0,1.5,8
137,2021-06-14T02:16:00,1,北北西,2.8,北西,19.5,96.6,0,0,1.5,8
138,2021-06-14T02:17:00,0.9,北西,2.8,北西,19.6,96.7,0,0,1.5,8
139,2021-06-14T02:18:00,0.8,北西,2.8,北西,19.6,96.6,0,0,1.5,8
140,2021-06-14T02:19:00,0.7,北西,2.8,北西,19.6,96.6,0,0,1.5,8
141,2021-06-14T02:20:00,0.7,北西,2.8,北西,19.7,96.6,0,0,1.5,8
142,2021-06-14T02:21:00,0.4,北西,1.9,北西,19.7,96.6,0,0,1.5,8
143,2021-06-14T02:22:00,0.3,北西,1.3,西北西,19.6,96.4,0,0,1.5,8
144,2021-06-14T02:23:00,0.4,北北西,1.4,北東,19.4,96.1,0,0,1.5,8
145,2021-06-14T02:24:00,0.4,北北西,1.6,北東,19.2,96,0,0,1.5,8
146,2021-06-14T02:25:00,0.5,北,1.6,北東,19.2,96.1,0,0,1.5,8
147,2021-06-14T02:26:00,0.5,北,1.6,北東,19.2,96.2,0,0,1.5,8
148,2021-06-14T02:27:00,0.5,北北東,1.6,北東,19.2,96.3,0,0,1.5,8
149,2021-06-14T02:28:00,0.6,北東,1.6,北東,19.2,96.4,0,0,1.5,8
150,2021-06-14T02:29:00,0.6,北東,1.6,北東,19.2,96.5,0,0,1.5,8
151,2021-06-14T02:30:00,0.6,北東,1.6,北東,19.2,96.6,0,0,1.5,8
152,2021-06-14T02:31:00,0.7,北東,1.6,北東,19.3,96.8,0,0,1.5,8
153,2021-06-14T02:32:00,0.7,北東,1.6,北東,19.5,97.1,0,0,1.5,8
154,2021-06-14T02:33:00,0.6,北東,1.6,北東,19.4,97.1,0,0,1.5,8
155,2021-06-14T02:34:00,0.5,北東,1.4,東北東,19.3,96.8,0,0,1.5,8
156,2021-06-14T02:35:00,0.5,北東,1.4,東北東,19.2,96.5,0,0,1.5,8
157,2021-06-14T02:36:00,0.4,北東,1.4,東北東,19.2,96.5,0,0,1.5,8
158,2021-06-14T02:37:00,0.5,北東,1.9,東,19.2,96.6,0,0,1.5,8
159,2021-06-14T02:38:00,0.6,東北東,1.9,東,19.1,96.7,0,0,1.5,8
160,2021-06-14T02:39:00,0.7,東北東,2.1,南東,19.1,96.6,0,0,1.5,8
161,2021-06-14T02:40:00,0.8,東北東,2.1,南東,19,96.7,0,0,1.5,8
162,2021-06-14T02:41:00,0.9,東,2.1,南東,19.1,96.7,0,0,1.5,8
163,2021-06-14T02:42:00,0.9,東,2.1,南東,19.1,96.8,0,0,1.5,8
164,2021-06-14T02:43:00,1.1,東,2.6,南東,19.1,96.8,0,0,1.5,8
165,2021-06-14T02:44:00,1.4,東南東,3.4,南東,19.1,96.8,0,0,1.5,8
166,2021-06-14T02:45:00,1.5,東南東,3.7,南東,19.1,96.8,0,0,1.5,8
167,2021-06-14T02:46:00,1.7,東南東,3.7,南東,19.1,96.8,0,0,1.5,8
168,2021-06-14T02:47:00,1.9,東南東,3.9,南東,19.1,96.8,0,0,1.5,8
169,2021-06-14T02:48:00,1.9,南東,3.9,南東,19.1,96.9,0,0,1.5,8
170,2021-06-14T02:49:00,1.9,南東,3.9,南東,19.1,96.9,0,0,1.5,8
171,2021-06-14T02:50:00,1.9,南東,3.9,南東,19.1,96.8,0,0,1.5,8
172,2021-06-14T02:51:00,1.8,南東,3.9,南東,19.1,96.9,0,0,1.5,8
173,2021-06-14T02:52:00,1.8,南東,3.9,南東,19.1,96.8,0,0,1.5,8
174,2021-06-14T02:53:00,1.7,南東,3.9,南東,19.1,96.8,0,0,1.5,8
175,2021-06-14T02:54:00,1.5,南東,3.9,南東,19.1,96.9,0,0,1.5,8
176,2021-06-14T02:55:00,1.3,南東,3.9,南東,19.1,96.8,0,0,1.5,8
177,2021-06-14T02:56:00,1.1,南東,3.9,南東,19.1,96.8,0,0,1.5,8
178,2021-06-14T02:57:00,0.9,南東,3.3,南南東,19.1,96.8,0,0,1.5,8
179,2021-06-14T02:58:00,0.9,東南東,2,南東,19.2,96.8,0,0,1.5,8
180,2021-06-14T02:59:00,0.8,東南東,2,南東,19.2,96.8,0,0,1.5,8
181,2021-06-14T03:00:00,0.8,東南東,1.7,東南東,19.1,96.6,0,0,1.5,8
182,2021-06-14T03:01:00,0.9,東南東,1.7,東南東,19,96.6,0,0,1.5,8
183,2021-06-14T03:02:00,1,東南東,1.7,東南東,19,96.5,0,0,1.5,8
184,2021-06-14T03:03:00,1,東南東,1.7,東南東,19,96.5,0,0,1.5,8
185,2021-06-14T03:04:00,1,東南東,1.7,東南東,19,96.5,0,0,1.5,8
186,2021-06-14T03:05:00,1,東南東,1.7,東南東,19,96.6,0,0,1.5,8
187,2021-06-14T03:06:00,0.9,東南東,1.7,東南東,19,96.7,0,0,1.5,8
188,2021-06-14T03:07:00,0.9,東南東,1.7,東南東,19.1,96.8,0,0,1.5,8
189,2021-06-14T03:08:00,0.8,東南東,1.7,東南東,19,96.8,0,0,1.5,8
190,2021-06-14T03:09:00,0.8,東南東,1.7,東南東,19,96.6,0,0,1.5,8
191,2021-06-14T03:10:00,0.8,東南東,1.7,東南東,19,96.6,0,0,1.5,8
192,2021-06-14T03:11:00,0.8,東,2.1,東北東,18.9,96.6,0,0,1.5,8
193,2021-06-14T03:12:00,0.8,東,2.1,東北東,18.9,96.6,0,0,1.5,8
194,2021-06-14T03:13:00,0.8,東,2.1,東北東,18.9,96.6,0,0,1.5,8
195,2021-06-14T03:14:00,0.8,東,2.1,東北東,18.9,96.7,0,0,1.5,8
196,2021-06-14T03:15:00,0.9,東,2.1,東北東,18.9,96.6,0,0,1.5,8
197,2021-06-14T03:16:00,1,東北東,2.4,東北東,18.8,96.7,0,0,1.5,8
198,2021-06-14T03:17:00,1.2,東北東,2.4,東北東,18.8,96.6,0,0,1.5,8
199,2021-06-14T03:18:00,1.3,東北東,2.6,東北東,18.8,96.7,0.5,0.5,2,8.5
200,2021-06-14T03:19:00,1.4,東北東,2.9,東北東,18.8,96.7,0.5,0.5,2,8.5
201,2021-06-14T03:20:00,1.5,東北東,2.9,東北東,18.8,96.7,0.5,0.5,2,8.5
202,2021-06-14T03:21:00,1.5,東北東,2.9,東北東,18.8,96.8,0.5,0.5,2,8.5
203,2021-06-14T03:22:00,1.6,東北東,2.9,東北東,18.8,96.8,0.5,0.5,2,8.5
204,2021-06-14T03:23:00,1.7,東北東,2.9,東北東,18.8,96.8,0.5,0.5,2,8.5
205,2021-06-14T03:24:00,1.7,東北東,2.9,東北東,18.8,96.8,0.5,0.5,2,8.5
206,2021-06-14T03:25:00,1.6,東北東,2.9,東北東,18.8,96.9,0.5,0.5,2,8.5
207,2021-06-14T03:26:00,1.5,北東,2.9,東北東,18.9,97,0.5,0.5,2,8.5
208,2021-06-14T03:27:00,1.4,北東,2.9,東北東,18.9,97.1,0.5,0.5,2,8.5
209,2021-06-14T03:28:00,1.3,北東,2.9,東北東,19,97.2,0,0.5,2,8.5
210,2021-06-14T03:29:00,1.2,北東,2.9,東北東,19.1,97.2,0,0.5,2,8.5
211,2021-06-14T03:30:00,1.1,北東,2.7,東北東,19,97,0,0.5,2,8.5
212,2021-06-14T03:31:00,1.1,東北東,2.7,東北東,19,96.9,0,0.5,2,8.5
213,2021-06-14T03:32:00,1.1,南東,2.6,東北東,18.9,96.9,0,0.5,2,8.5
214,2021-06-14T03:33:00,1.1,南南東,2.5,南東,18.9,96.8,0,0.5,2,8.5
215,2021-06-14T03:34:00,1.1,南南東,2.5,南東,18.9,96.7,0,0.5,2,8.5
216,2021-06-14T03:35:00,1.2,南東,2.5,南東,18.9,96.7,0,0.5,2,8.5
217,2021-06-14T03:36:00,1.3,南東,2.5,南東,18.8,96.8,0,0.5,2,8.5
218,2021-06-14T03:37:00,1.3,東南東,2.5,南東,18.8,96.7,0,0.5,2,8.5
219,2021-06-14T03:38:00,1.4,東南東,2.5,南東,18.8,96.7,0,0.5,2,8.5
220,2021-06-14T03:39:00,1.5,東,2.5,南東,18.8,96.7,0,0.5,2,8.5
221,2021-06-14T03:40:00,1.6,東,2.5,南東,18.8,96.8,0,0.5,2,8.5
222,2021-06-14T03:41:00,1.5,東,2.5,南東,18.9,96.9,0,0.5,2,8.5
223,2021-06-14T03:42:00,1.4,東北東,2.5,南東,18.9,96.9,0,0.5,2,8.5
224,2021-06-14T03:43:00,1.3,東北東,2.4,東北東,18.9,96.9,0,0.5,2,8.5
225,2021-06-14T03:44:00,1.2,東北東,2.4,東北東,18.9,96.9,0,0.5,2,8.5
226,2021-06-14T03:45:00,1.1,東北東,2.4,東北東,18.9,96.8,0,0.5,2,8.5
227,2021-06-14T03:46:00,1.2,東,2.4,東北東,18.9,96.8,0,0.5,2,8.5
228,2021-06-14T03:47:00,1.2,東,2.4,東北東,18.9,96.8,0,0.5,2,8.5
229,2021-06-14T03:48:00,1.1,東,2.3,南東,18.9,96.7,0,0.5,2,8.5
230,2021-06-14T03:49:00,1,東,2.3,南東,18.9,96.7,0,0.5,2,8.5
231,2021-06-14T03:50:00,1,東,2.3,南東,18.9,96.8,0,0.5,2,8.5
232,2021-06-14T03:51:00,1,東,2.3,南東,18.9,96.8,0,0.5,2,8.5
233,2021-06-14T03:52:00,1,東,2.3,南東,18.8,96.7,0,0.5,2,8.5
234,2021-06-14T03:53:00,1.1,東,2.3,南東,18.8,96.7,0,0.5,2,8.5
235,2021-06-14T03:54:00,1.2,東,2.3,南東,18.8,96.8,0,0.5,2,8.5
236,2021-06-14T03:55:00,1.3,東,3.3,東北東,18.8,96.7,0,0.5,2,8.5
237,2021-06-14T03:56:00,1.4,東,3.3,東北東,18.8,96.7,0,0.5,2,8.5
238,2021-06-14T03:57:00,1.5,東,3.3,東北東,18.7,96.7,0,0.5,2,8.5
239,2021-06-14T03:58:00,1.5,東北東,3.3,東北東,18.8,96.8,0,0.5,2,8.5
240,2021-06-14T03:59:00,1.6,東北東,3.3,東北東,18.7,96.8,0,0.5,2,8.5
241,2021-06-14T04:00:00,1.5,東北東,3.3,東北東,18.8,96.9,0,0.5,2,8.5
242,2021-06-14T04:01:00,1.5,東北東,3.3,東北東,18.8,96.9,0,0.5,2,8.5
243,2021-06-14T04:02:00,1.5,東北東,3.3,東北東,18.8,96.9,0,0.5,2,8.5
244,2021-06-14T04:03:00,1.4,東北東,3.3,東北東,18.8,96.9,0,0.5,2,8.5
245,2021-06-14T04:04:00,1.3,東北東,3.3,東北東,18.8,96.9,0,0.5,2,8.5
246,2021-06-14T04:05:00,1.2,東北東,3.3,北東,18.8,96.9,0,0.5,2,8.5
247,2021-06-14T04:06:00,1.1,東北東,3.3,北東,18.8,96.9,0,0.5,2,8.5
248,2021-06-14T04:07:00,1,東北東,2.2,北北東,18.8,96.9,0,0.5,2,8.5
249,2021-06-14T04:08:00,0.9,東,1.9,東南東,18.8,96.9,0,0.5,2,8.5
250,2021-06-14T04:09:00,1,東,1.9,東南東,18.9,96.9,0,0.5,2,8.5
